Regional Weather Roundup
Issued by NWS Jackson, KY

Home | Current Version | Previous Version | Text Only | Print | Product List | Glossary Off
Versions: 1 2 3 4 5 6 7 8 9 10 11 12 13 14 15 16 17 18 19 20 21 22 23 24 25 26 27 28 29 30 31 32 33 34 35 36 37 38 39 40 41 42 43 44 45 46 47 48 49 50

000
ASUS43 KJKL 012010
RWRJKL

EAST KENTUCKY HOURLY WEATHER ROUNDUP
NATIONAL WEATHER SERVICE JACKSON KY
400 PM EDT MON SEP 01 2014

NOTE: "FAIR" INDICATES FEW OR NO CLOUDS BELOW 12,000 FEET WITH
NO SIGNIFICANT WEATHER AND/OR OBSTRUCTIONS TO VISIBILITY.

* THESE REPORTS ARE NOT UNDER NWS QUALITY CONTROL AND MAY NOT
  REPORT WEATHER SUCH AS PRECIPITATION AND FOG.

KYZ079-080-083-085-087-088-110-112-115-119-120-012100
...EASTERN KENTUCKY...

CITY           SKY/WX    TMP DP  RH WIND       PRES   REMARKS
JACKSON        MOSUNNY   85  70  60 MISG      30.04F
LONDON         SUNNY     90  64  42 SW14G22   30.04F HX  91
SOMERSET*      PTSUNNY   88  64  45 W16       30.04F
MONTICELLO*    SUNNY     89  70  53 SW16      30.05F HX  94
WILLIAMSBURG*  MOSUNNY   86  66  51 SW10      30.05F
MIDDLESBORO*   SUNNY     87  72  61 S8        30.07F HX  93
HARLAN APT*    PTCLDY    88  64  45 MISG      30.08F
HAZARD APT*    PTCLDY    86  68  54 SW8       30.04F
BLACK MTN*       N/A     73  66  78 SW2         N/A
PIKEVILLE APT* MOSUNNY   84  68  58 S7G16     30.06F
BIG SANDY*     MOCLDY    86  70  59 SW8       30.04F HX  91
MOREHEAD APT*  PTCLDY    72  70  94 S6        30.04F
$$

KYZ035-036-041-042-044-050-067-078-099-012100
...CENTRAL KENTUCKY...

CITY           SKY/WX    TMP DP  RH WIND       PRES   REMARKS
MT STERLING*   CLOUDY    77  70  78 W6        30.03S
FLEMING/MASON* SUNNY     75  72  88 S8        30.00S
DANVILLE*      MOSUNNY   81  73  78 SW8       30.03F
RICHMOND*      PTSUNNY   79  70  73 W7G17     30.02S
LEXINGTON      PTSUNNY   85  72  65 SW13G24   29.99F HX  91
FRANKFORT      MOSUNNY   83  71  67 SW15G28   29.96F
$$

KYZ091>093-OHZ055-061-077-WVZ005-015-034-035-042-012100
...SOUTHERN OHIO/WEST VIRGINIA...

CITY           SKY/WX    TMP DP  RH WIND       PRES   REMARKS
COVINGTON      PTSUNNY   84  71  65 SW13G18   29.94S
COLUMBUS       CLOUDY    85  71  63 S15G21    29.91F HX  90
DAYTON         PTSUNNY   84  71  65 S15       29.91F
WILMINGTON     MOSUNNY   85  71  63 SW18      29.93F HX  90
HUNTINGTON     TSTM      76  69  79 W15G35    30.03R VSB 1/2
CHARLESTON     PTSUNNY   84  69  60 SW10      30.02F
BECKLEY        MOSUNNY   82  63  52 SW10G21   30.13F
BLUEFIELD      MOSUNNY   83  63  50 W12       30.17F
$$

VAZ002-007-008-TNZ017-027-036-066-071-012100
...SOUTHWEST VIRGINIA/EAST TENNESSEE...

CITY           SKY/WX    TMP DP  RH WIND       PRES   REMARKS
WISE*          SUNNY     82  61  47 SW13      30.17F
JONESVILLE*      N/A     86  68  54 S13       30.10F
ABINGDON*      MOSUNNY   86  65  49 W9        30.14F
BRISTOL        MOSUNNY   88  64  44 W12       30.10F
KNOXVILLE      MOSUNNY   87  68  52 SW17      30.06F HX  90
OAK RIDGE      MOSUNNY   91  69  48 VRB5      30.08F HX  96
CROSSVILLE     MOSUNNY   85  66  53 W10G21    30.12F
NASHVILLE      PTSUNNY   91  67  44 SW14G21   30.02F HX  94
$$

...KEY TO REMARKS...
VSB - VISIBILITY IN MILES
WCI - WIND CHILL INDEX
HX  - HEAT INDEX

$$



USA.gov is the U.S. government's official web portal to all federal, state and local government web resources and services.